Location: DougsCathedral
(37.2800°N, 110.7300°W)
Time: 16:12:15
(UTC-06:00)

Tianhe-1 - Visible Passes

Search period start: 18 June 2021 00:00
Search period end: 28 June 2021 00:00
Orbit: 375 x 386 km, 41.5° (Epoch: 18 June)

Date Brightness Start Highest point End Pass type
(mag) Time Alt. Az. Time Alt. Az. Time Alt. Az.
18 Jun 2.1 04:54:34 18° SSW 04:56:20 34° SSE 04:59:15 10° E visible
19 Jun 3.2 03:56:19 17° SE 03:56:19 17° SE 03:57:50 10° E visible
19 Jun 1.1 05:28:53 10° WSW 05:32:01 80° NNW 05:35:11 10° ENE visible
20 Jun 1.2 04:30:09 39° SW 04:31:04 60° SSE 04:34:10 10° ENE visible
21 Jun 3.3 03:31:49 19° E 03:31:49 19° E 03:33:02 10° E visible
21 Jun 1.6 05:03:56 11° W 05:06:50 54° NNW 05:09:57 10° ENE visible
22 Jun 0.9 04:05:34 73° W 04:05:48 83° NNW 04:08:58 10° ENE visible
23 Jun 3.8 03:07:11 16° ENE 03:07:11 16° ENE 03:07:54 10° ENE visible
23 Jun 2.1 04:39:17 15° WNW 04:41:39 42° N 04:44:40 10° ENE visible
24 Jun 1.8 03:40:54 51° NNE 03:40:54 51° NNE 03:43:38 10° ENE visible
24 Jun 2.5 05:14:38 10° WNW 05:17:35 36° N 05:20:32 10° ENE visible
25 Jun 4.3 02:42:31 11° ENE 02:42:31 11° ENE 02:42:36 10° ENE visible
25 Jun 2.4 04:14:38 19° WNW 04:16:25 36° N 04:19:22 10° ENE visible
26 Jun 3.0 03:16:17 30° NE 03:16:17 30° NE 03:18:16 10° ENE visible
26 Jun 2.4 04:49:22 10° WNW 04:52:20 39° N 04:55:20 10° E visible
27 Jun 2.5 03:50:09 27° NW 03:51:09 35° N 03:54:05 10° ENE visible
27 Jun 1.3 05:25:01 10° WNW 05:28:09 71° NNE 05:31:17 10° ESE visible
